Location: Julian California
(33.0790°N, 116.6010°W)
Time: 09:21:39
(UTC-07:00)

Cosmos 2285 Rocket - Pass Details

Date: 14 June 2018
Orbit: 971 x 998 km, 74.0° (Epoch: 21 June)

Event Time Altitude Azimuth Distance (km) Brightness Sun altitude
Exits shadow 21:54:35 35° 126° (SE) 1,528 4.5 -20.3°
Maximum altitude 21:55:51 39° 100° (E) 1,440 4.5 -20.4°
Drops below altitude 10° 22:01:36 10° 34° (NE) 2,726 6.5 -21.2°
Sets 22:04:18 0° 27° (NNE) 3,674 7.3 -21.6°
